Weather History for KBJJ - April, 2014

Change the Weather History Date:

Wednesday, April 2, 2014

  Actual Average Record
Temperature  
Mean Temperature 50 °F -  
Max Temperature 60 °F 52 °F 73 °F (2003)
Min Temperature 41 °F 33 °F 21 °F (2013)
Degree Days  
Heating Degree Days 15    
Moisture  
Dew Point 33 °F    
Average Humidity 56    
Maximum Humidity 76    
Minimum Humidity 39    
Precipitation  
Precipitation 0.00 in - - ()
Sea Level Pressure  
Sea Level Pressure 30.13 in    
Wind  
Wind Speed 7 mph (North)    
Max Wind Speed 13 mph    
Max Gust Speed -    
Visibility 10 miles    
Events      
Averages and records for this station are not official NWS values.
T = Trace of Precipitation, MM = Missing Value Source: NWS Daily Summary

Daily Weather History Graph

Daily Weather History Graph

Search for Another Location

Airport or City:

Trip Planner

Search our weather history database for the weather conditions in past years. The results will help you decide how hot, cold, wet, or windy it might be!

Date:

Astronomy

Apr. 02, 2014 Rise Set
Actual Time 7:09 AM EDT 7:53 PM EDT
Civil Twilight 6:41 AM EDT 8:21 PM EDT
Nautical Twilight 6:08 AM EDT 8:54 PM EDT
Astronomical Twilight 5:34 AM EDT 9:28 PM EDT
Moon 8:51 AM EDT (4/2) 11:16 PM EDT (4/2)
Length of Visible Light 13h 39m
Length of Day
12h 44m
Waxing Crescent, 10% of the Moon is Illuminated
Apr 2
Waxing Crescent
Apr 7
First Quarter
Apr 15
Full
Apr 22
Last Quarter
Apr 29
New

Hourly Weather History & Observations

Time (EDT) Temp. Windchill Dew Point Humidity Pressure Visibility Wind Dir Wind Speed Gust Speed Precip Events Conditions
12:56 AM 46.9 °F - 34.0 °F 61% 30.08 in 10.0 mi WNW 12.7 mph - N/A   Overcast
1:56 AM 46.9 °F - 34.0 °F 61% 30.09 in 10.0 mi WNW 10.4 mph - N/A   Overcast
2:56 AM 46.0 °F 40.6 °F 34.0 °F 63% 30.07 in 10.0 mi NNW 11.5 mph - N/A   Overcast
3:56 AM 43.0 °F 39.5 °F 34.0 °F 71% 30.06 in 10.0 mi North 5.8 mph - N/A   Partly Cloudy
4:56 AM 42.1 °F - 35.1 °F 76% 30.09 in 10.0 mi Calm Calm - N/A   Mostly Cloudy
5:56 AM 42.1 °F 38.4 °F 34.0 °F 73% 30.11 in 10.0 mi North 5.8 mph - N/A   Overcast
6:56 AM 41.0 °F 38.0 °F 34.0 °F 76% 30.12 in 10.0 mi NE 4.6 mph - N/A   Overcast
8:56 AM 43.0 °F 41.3 °F 30.0 °F 60% 30.16 in 10.0 mi North 3.5 mph - N/A   Overcast
9:56 AM 45.0 °F 43.5 °F 30.0 °F 56% 30.16 in 10.0 mi NNW 3.5 mph - N/A   Overcast
10:56 AM 48.0 °F - 33.1 °F 56% 30.17 in 10.0 mi NE 3.5 mph - N/A   Clear
11:56 AM 50.0 °F - 33.1 °F 52% 30.17 in 10.0 mi Calm Calm - N/A   Clear
12:56 PM 52.0 °F - 34.0 °F 50% 30.15 in 10.0 mi Calm Calm - N/A   Clear
1:56 PM 55.9 °F - 34.0 °F 44% 30.15 in 10.0 mi Variable 3.5 mph - N/A   Partly Cloudy
2:56 PM 57.0 °F - 34.0 °F 42% 30.13 in 10.0 mi North 5.8 mph - N/A   Overcast
3:56 PM 59.0 °F - 34.0 °F 39% 30.12 in 10.0 mi Calm Calm - N/A   Clear
4:56 PM 57.9 °F - 33.1 °F 39% 30.12 in 8.0 mi NNW 5.8 mph - N/A   Clear
5:56 PM 57.0 °F - 35.1 °F 44% 30.11 in 10.0 mi NE 6.9 mph - N/A   Clear
6:56 PM 55.0 °F - 36.0 °F 49% 30.12 in 10.0 mi North 5.8 mph - N/A   Clear
7:56 PM 50.0 °F - 32.0 °F 50% 30.12 in 10.0 mi NNE 10.4 mph - N/A   Clear
8:56 PM 46.9 °F - 30.0 °F 52% 30.15 in 10.0 mi NNE 8.1 mph - N/A   Mostly Cloudy
9:56 PM 46.0 °F 42.5 °F 30.9 °F 56% 30.15 in 10.0 mi NNE 6.9 mph - N/A   Overcast
10:56 PM 45.0 °F 40.1 °F 30.0 °F 56% 30.15 in 10.0 mi NE 9.2 mph - N/A   Overcast
11:56 PM 44.1 °F 39.0 °F 30.9 °F 60% 30.13 in 10.0 mi NE 9.2 mph - N/A   Overcast